Theta_e
311 313 315 315 316 316 315 315 315 314 314 315 316 317 317 316 316 317 318 320 321 321 320 319 318 318 319 320 319 319 320 319 318 318 317 317 316 316 314 313 314 315 315 313 308 302 300 300 302 306 310 311 312 313 313 311 306 304 301 298 297 297 297 297 297 296 295 294 294 294 294 294 294 294 294 294 294 294 294 294 294 294 293 293 293
311 312 313 314 315 315 315 315 315 314 313 313 314 315 317 317 317 316 316 317 319 320 320 320 319 319 319 319 319 319 320 319 318 318 317 317 316 315 314 313 313 315 314 312 310 308 304 303 305 309 311 312 313 313 311 308 304 302 299 297 296 296 296 296 297 297 296 295 294 294 294 294 294 294 294 294 294 294 294 293 293 293 293 293 292
311 311 312 313 314 314 314 314 313 313 313 312 313 314 314 316 317 317 316 316 317 318 318 318 320 320 319 319 319 320 320 319 318 317 318 317 316 315 314 313 313 314 314 313 312 311 309 307 309 312 312 312 312 311 309 306 303 299 297 296 296 296 296 296 296 297 297 295 294 294 294 293 293 293 293 293 293 293 293 293 293 292 292 292 292
311 311 312 312 313 313 313 313 313 312 312 311 312 313 314 314 316 317 317 317 316 316 317 317 319 319 319 319 319 319 319 319 318 317 317 317 316 314 313 313 313 314 314 313 313 312 311 310 311 312 312 311 310 309 307 304 300 297 296 296 295 295 296 296 296 296 297 295 294 293 293 293 293 293 293 293 292 293 293 293 292 292 292 291 291
311 311 312 312 312 313 313 313 313 312 312 311 310 312 313 314 315 315 317 317 317 317 318 318 319 319 319 320 320 319 318 319 319 318 317 317 316 314 314 313 313 313 314 313 313 313 312 311 312 312 312 310 308 307 305 302 298 296 296 296 295 295 295 295 295 295 295 295 294 294 293 293 293 293 292 292 292 292 292 292 292 292 291 291 291
310 310 311 312 312 313 312 312 312 312 311 311 310 310 312 313 314 315 315 316 317 317 318 319 319 319 319 320 320 320 319 319 319 318 317 317 315 314 314 313 313 313 313 313 313 313 313 312 312 313 311 309 307 306 303 299 297 296 296 296 295 295 295 295 295 295 294 294 294 294 293 293 293 292 292 292 292 292 292 292 292 291 291 291 291
309 310 310 311 312 312 312 312 312 311 311 311 310 310 310 311 313 313 314 314 315 315 316 317 318 318 318 319 319 319 318 319 319 317 317 317 315 314 313 312 312 313 313 313 313 313 313 312 312 312 310 307 306 304 301 297 296 296 296 296 296 295 295 295 294 294 294 294 293 293 293 293 292 292 292 292 292 292 292 292 291 291 291 291 291
307 309 310 310 311 312 312 312 312 311 311 311 311 310 310 310 311 312 312 312 313 313 314 314 315 315 316 317 317 317 317 317 317 317 316 316 315 314 313 312 312 313 313 312 312 312 312 311 311 310 307 305 304 301 299 297 296 296 295 295 295 296 295 295 294 294 294 293 293 293 292 292 292 292 292 292 292 292 292 292 291 291 291 290 290
304 306 309 310 310 311 311 312 312 311 311 311 311 310 310 310 310 311 311 312 312 312 312 312 313 314 315 315 316 316 316 316 316 316 316 315 314 314 312 311 312 313 312 312 312 311 310 309 309 308 306 304 302 299 297 296 296 296 296 296 295 295 295 294 294 294 293 293 293 293 292 292 292 293 292 292 292 292 292 291 291 291 291 290 290
302 304 307 309 310 310 311 311 311 311 311 311 310 310 310 309 310 310 311 311 311 311 311 311 312 313 314 314 314 314 314 314 314 314 314 314 314 313 311 311 312 312 311 312 311 309 307 306 307 307 305 302 299 297 296 296 296 296 296 296 296 295 295 294 294 294 293 293 293 293 293 293 292 292 292 292 292 292 291 291 291 291 290 290 290
301 302 305 307 309 310 310 311 311 311 310 310 310 310 310 309 309 310 310 310 311 311 312 312 312 313 313 313 313 313 312 312 312 312 312 313 312 311 310 311 311 311 311 311 309 306 304 305 306 305 303 299 297 296 295 295 295 295 295 295 296 296 295 295 294 294 294 293 293 293 293 293 292 292 292 292 292 291 291 291 291 291 290 290 290
301 301 303 306 307 309 310 310 311 311 311 310 310 310 310 310 309 310 309 310 310 311 312 312 312 312 312 311 311 310 309 309 309 310 310 311 310 310 310 311 311 311 311 309 306 304 304 304 304 303 300 297 296 295 295 294 295 295 295 295 295 295 295 295 295 294 294 294 294 293 293 293 293 292 292 292 292 291 291 291 291 290 290 290 290
300 301 303 305 306 308 310 310 310 311 310 310 310 310 310 310 310 310 310 310 310 311 311 312 312 311 310 310 309 309 309 308 308 309 309 309 310 310 310 310 310 310 309 307 304 303 303 303 302 299 297 296 295 294 294 294 294 294 294 294 294 294 294 294 294 294 294 294 294 294 293 293 293 292 292 292 292 291 291 291 290 290 290 290 290
300 302 302 304 305 307 309 310 310 310 310 310 310 310 310 309 309 309 310 310 310 311 311 311 310 309 309 309 309 309 309 309 308 308 309 309 309 310 310 310 310 309 307 304 303 303 302 301 299 297 296 295 294 294 293 293 293 293 293 293 293 293 294 294 294 293 293 294 294 294 293 293 293 292 292 292 292 291 291 291 290 290 290 290 290
300 302 302 303 305 306 308 309 310 310 310 310 310 310 309 309 308 309 309 310 310 310 310 309 309 309 309 309 309 308 309 309 308 308 309 309 309 310 310 310 309 307 304 302 302 302 300 299 297 296 295 295 294 293 293 293 293 292 292 293 293 294 294 294 294 294 294 294 294 293 293 293 292 292 292 292 291 291 291 290 290 290 290 290 290
299 301 302 302 304 306 307 308 309 309 309 310 310 309 309 308 308 308 308 309 310 310 310 309 309 309 309 309 308 308 309 309 308 308 309 309 309 310 310 309 307 304 302 302 301 300 298 297 296 295 295 294 294 294 293 293 292 292 293 294 294 294 294 294 293 293 293 293 293 293 292 292 292 292 292 291 291 291 291 290 290 290 290 290 290
299 301 301 301 303 305 306 307 308 309 309 309 309 309 309 308 308 308 308 309 310 310 310 309 309 309 309 309 308 308 309 309 309 309 309 309 310 310 310 308 305 302 302 301 300 298 297 296 295 295 294 294 294 294 293 293 292 293 294 294 294 294 293 293 293 292 292 292 292 292 292 292 292 292 291 291 291 291 290 290 290 290 290 290 290
299 300 301 301 301 303 305 306 307 308 308 308 308 308 308 308 307 308 308 308 310 310 310 309 309 309 309 308 308 309 310 310 309 309 310 310 310 309 307 304 302 301 301 300 298 297 296 296 295 294 294 294 294 294 293 293 293 294 294 294 294 294 293 293 292 292 292 292 292 292 292 291 291 291 291 291 291 291 291 291 290 290 290 290 290
299 299 300 301 301 302 303 305 306 307 307 308 308 308 308 308 307 308 308 308 309 310 310 309 309 309 309 308 308 309 310 310 310 310 310 309 308 306 303 302 302 301 300 298 297 296 296 295 295 294 294 294 294 293 293 293 294 294 295 294 294 294 293 293 292 292 292 292 292 292 291 291 291 290 290 291 291 291 291 291 290 290 290 290 289
299 299 299 301 301 301 302 303 305 306 307 307 308 308 308 307 307 307 307 307 309 310 310 309 309 309 308 307 307 307 307 307 308 307 307 306 304 302 302 302 301 300 298 297 297 296 296 295 294 294 293 294 293 293 293 293 294 294 294 294 295 294 293 293 292 292 292 292 292 292 291 291 291 290 291 291 291 291 291 290 290 290 290 289 289
298 298 299 300 301 301 301 302 304 305 306 306 307 307 308 307 307 307 307 307 308 309 309 309 309 308 308 307 306 305 304 303 304 304 304 303 302 302 301 301 300 299 298 297 297 296 296 295 294 294 293 293 293 293 293 293 293 294 294 294 294 294 293 292 292 291 291 291 292 291 291 291 291 291 291 291 291 290 290 290 290 290 289 289 289
297 297 299 300 300 301 301 301 302 304 305 305 306 306 307 306 306 306 307 307 307 308 309 309 309 308 307 307 306 304 302 302 302 302 302 302 301 301 301 300 299 298 297 297 296 296 295 295 294 294 293 293 293 292 293 293 293 293 293 293 293 293 292 292 291 291 291 291 291 291 291 291 291 291 290 290 290 290 290 290 290 289 289 289 289
297 297 299 300 300 301 301 301 301 302 303 304 305 305 305 305 305 306 306 306 307 307 308 308 308 308 307 307 306 304 303 301 301 301 301 301 300 300 299 298 298 297 297 297 296 296 295 295 294 294 293 293 293 292 292 292 292 292 292 292 292 292 291 291 291 291 291 291 291 291 291 291 290 290 290 290 290 290 290 289 289 289 289 289 289
297 298 300 300 300 300 301 300 301 302 303 303 304 304 304 304 304 305 306 306 305 306 307 307 307 307 307 306 306 304 303 301 300 300 300 300 299 299 298 297 297 297 297 297 296 296 295 294 294 294 293 293 293 292 292 292 292 292 292 292 291 291 291 290 290 290 291 291 291 291 291 290 290 290 289 289 289 289 289 289 289 289 289 289 289
298 299 301 300 300 300 301 300 300 301 302 302 303 303 303 303 304 304 305 305 304 304 305 306 306 306 306 306 305 304 302 300 300 299 299 299 298 298 297 297 297 297 297 296 296 296 295 294 294 294 294 293 292 292 291 291 291 291 291 291 291 291 290 290 290 290 290 290 291 291 290 290 289 289 289 289 289 289 289 289 289 289 289 289 288
298 300 301 300 300 301 301 300 300 301 301 302 302 303 303 303 303 303 304 303 303 303 303 304 305 305 305 306 305 303 301 300 299 299 298 298 298 297 296 296 296 296 296 296 295 295 294 294 294 294 293 293 292 292 291 291 291 291 291 290 290 290 290 290 290 290 290 290 290 290 290 289 288 288 288 289 289 289 289 289 289 289 289 289 289
300 301 302 301 300 301 301 300 300 300 301 301 301 302 302 303 303 303 303 303 302 301 302 303 304 304 304 305 304 302 300 299 299 298 298 297 296 296 295 296 296 295 295 295 295 294 294 294 294 293 293 292 292 292 292 291 291 291 290 290 290 290 290 290 290 290 290 290 290 289 289 288 288 288 289 289 289 289 289 289 289 289 289 289 288
301 302 302 301 301 301 301 300 300 300 300 301 301 301 301 302 302 303 304 304 303 301 301 302 304 304 304 304 303 301 299 299 299 298 298 297 296 295 295 296 296 295 295 294 294 293 293 293 293 293 292 292 291 291 291 291 290 290 290 290 290 290 290 289 289 289 289 289 288 288 288 288 288 288 289 289 289 289 289 289 289 289 288 288 288
300 300 301 301 301 301 301 300 300 300 300 300 300 300 301 301 301 302 303 304 305 304 303 304 305 305 305 304 303 301 299 299 299 298 297 296 296 296 296 296 296 295 294 294 293 293 293 293 293 292 292 291 291 291 291 290 290 290 290 290 290 290 290 289 288 288 288 288 287 287 287 287 288 288 289 289 289 289 289 289 289 288 288 288 288
299 300 301 301 300 300 300 300 299 299 300 300 300 299 300 300 301 302 302 303 304 304 304 305 305 306 305 304 303 302 302 301 299 298 297 297 296 297 297 296 295 295 294 294 293 293 293 293 292 292 292 291 291 291 291 290 290 291 291 291 290 290 289 288 288 288 287 287 287 287 287 287 288 288 289 289 289 289 289 289 288 288 288 288 288
299 300 301 300 300 300 300 300 299 299 299 300 300 299 298 299 300 300 301 302 302 302 302 302 303 304 305 304 303 302 302 302 300 298 297 297 297 296 296 295 295 294 294 293 293 293 293 292 292 292 291 291 291 291 291 291 292 293 292 291 290 289 288 287 287 287 287 287 287 287 287 287 288 288 289 289 289 289 288 288 288 288 288 288 288
300 300 300 300 301 300 300 300 299 298 298 299 299 299 298 298 298 298 298 299 300 300 299 299 299 301 303 303 304 303 301 300 299 298 297 297 296 296 295 295 294 294 293 293 293 293 292 292 292 291 291 291 291 291 292 293 294 293 292 290 289 288 287 287 287 287 287 287 286 286 286 287 288 288 289 289 289 288 288 288 288 288 288 288 288
300 300 300 300 300 300 299 300 299 299 298 298 298 298 298 298 297 297 297 297 298 298 298 298 299 299 299 300 301 303 303 301 299 297 297 297 296 295 295 294 293 293 293 293 292 292 292 292 291 291 291 291 291 292 293 294 295 293 291 290 289 288 287 287 287 287 286 286 286 286 286 287 288 288 288 288 288 288 288 288 288 287 287 288 288
299 299 299 299 299 299 298 298 299 299 298 298 298 297 297 297 297 297 296 296 296 296 296 296 297 298 298 298 298 299 301 302 300 298 297 296 295 295 294 293 293 293 293 293 292 292 292 292 292 292 291 291 291 292 294 295 295 293 291 289 289 288 287 287 286 286 285 285 285 285 286 287 287 288 288 288 288 287 287 287 287 287 287 287 286
298 298 298 298 299 299 298 298 298 299 298 297 297 297 296 297 297 296 296 296 296 296 295 295 295 296 297 297 296 295 296 298 300 299 298 297 295 294 293 293 293 292 292 292 292 292 292 292 292 292 292 292 292 293 295 295 294 292 290 289 289 288 287 287 287 286 285 285 285 285 285 286 287 287 287 287 287 287 286 286 286 286 285 285 285
297 297 297 298 298 298 298 298 297 298 298 297 297 296 296 296 296 296 296 295 295 295 295 295 294 294 295 295 295 294 294 295 297 297 297 297 296 295 293 293 293 292 292 292 292 292 292 292 292 292 292 292 293 294 295 294 292 290 289 289 289 289 289 289 288 286 285 284 284 284 285 285 285 286 286 286 286 286 286 285 285 285 284 284 284
297 297 297 297 297 297 297 297 297 296 297 296 296 296 296 296 296 296 295 295 295 295 295 294 294 294 294 293 293 293 293 293 294 294 294 295 296 296 295 294 294 293 293 292 292 292 292 292 292 292 292 293 294 295 294 292 290 289 289 289 289 289 290 289 287 285 284 284 283 283 284 284 284 285 285 286 286 285 285 285 284 284 284 283 283
296 296 296 296 296 297 296 296 296 296 296 296 296 295 295 295 295 295 295 295 294 294 294 294 294 293 293 293 293 292 292 292 292 292 291 292 293 294 295 294 294 293 293 292 292 292 292 292 292 292 293 293 294 293 292 290 289 288 288 288 289 289 288 287 286 285 284 283 283 283 283 283 284 284 284 285 285 285 285 284 284 283 283 283 283
294 295 295 296 296 296 296 295 295 295 295 295 295 295 295 295 295 295 295 295 294 294 294 294 294 293 293 293 292 292 291 291 291 291 291 291 291 292 293 294 293 292 292 292 292 292 292 293 293 293 293 293 292 290 289 288 288 288 288 289 288 288 287 286 285 284 284 283 283 283 283 283 284 284 284 284 284 284 284 284 283 283 282 282 282
293 293 294 294 294 294 294 294 295 295 295 295 295 295 295 295 295 295 295 294 294 294 294 294 293 293 293 292 292 292 292 291 291 291 291 291 291 291 292 293 292 292 292 292 292 292 293 293 293 293 292 291 289 289 288 288 289 289 289 289 288 288 287 286 285 284 284 284 284 284 284 284 284 284 284 284 284 284 283 283 282 282 281 281 280
292 292 292 292 293 293 293 293 293 293 293 293 293 293 293 293 293 293 293 293 293 293 292 292 292 292 292 292 292 292 292 292 291 291 290 290 290 290 291 291 291 291 291 292 292 292 293 293 292 292 290 289 289 289 289 289 289 289 289 289 288 287 286 285 284 284 284 284 284 284 284 284 283 283 283 283 283 282 282 281 281 280 280 279 279
290 290 290 290 291 291 291 291 291 291 291 291 291 291 291 291 291 291 291 290 290 290 290 290 290 290 290 290 290 291 291 291 290 290 290 290 290 290 290 290 290 291 291 292 292 292 292 292 291 290 290 290 290 290 290 289 289 289 288 288 287 286 285 285 284 284 284 284 284 284 283 283 283 282 282 282 281 281 280 280 279 279 278 278 277
288 288 288 288 289 289 288 288 288 289 289 289 289 289 289 289 289 289 289 289 288 288 289 289 288 288 289 289 289 289 289 289 289 289 289 289 289 289 290 290 290 290 291 291 291 291 291 290 290 290 290 290 290 289 289 289 288 287 286 286 285 285 284 284 284 284 283 283 283 283 282 282 281 281 280 280 279 279 278 278 278 277 277 276 276
286 286 286 286 286 286 286 286 287 287 287 287 287 287 287 287 287 287 287 287 287 287 288 287 287 288 288 288 288 288 288 288 288 288 288 288 288 289 289 289 289 289 289 289 289 289 289 289 289 289 289 288 287 287 286 285 285 284 284 284 284 283 283 283 282 282 282 282 281 281 281 280 280 279 279 278 278 277 277 277 276 276 275 275 274
284 284 284 284 284 285 285 285 285 285 285 286 286 285 285 286 286 286 286 286 286 286 287 286 287 287 287 287 287 287 287 287 287 287 287 287 287 287 288 288 288 288 288 288 288 288 287 287 287 286 286 285 284 284 283 283 283 283 282 282 281 281 281 280 280 280 280 280 280 279 279 278 278 277 277 277 276 276 276 275 275 274 274 273 273
283 283 283 283 283 283 283 283 284 284 284 284 284 284 284 284 284 285 285 285 285 285 285 285 285 286 286 286 286 286 286 286 286 286 286 286 286 286 286 286 286 286 286 286 286 286 285 284 284 284 283 283 283 282 282 282 281 281 280 280 280 279 279 279 279 279 278 278 278 278 277 277 276 276 275 275 275 274 274 274 273 273 272 272 271
283 282 282 282 282 282 282 282 282 282 283 283 283 283 283 283 283 283 283 283 283 283 283 284 284 284 285 285 285 285 285 285 285 285 284 284 284 284 284 284 284 284 284 283 283 283 282 282 282 282 282 281 281 281 281 280 280 280 280 279 279 279 278 278 278 277 277 276 276 276 276 275 275 275 274 274 273 273 273 272 272 272 271 271 270
281 281 281 280 280 280 280 280 280 281 281 280 280 280 280 280 281 281 281 281 281 282 282 282 282 282 283 283 283 283 283 283 283 282 282 282 282 281 281 281 281 281 281 281 281 281 281 281 280 280 279 279 279 279 279 279 279 279 278 278 278 277 277 276 276 276 275 275 275 275 274 274 274 274 273 273 272 272 272 271 271 270 270 269 269
280 280 280 279 279 279 279 279 279 279 279 279 279 279 279 279 279 279 280 280 280 280 280 281 281 281 281 281 280 280 281 281 281 281 280 280 280 280 280 280 280 280 280 280 279 279 279 278 278 278 277 277 277 277 277 277 277 277 276 276 276 275 275 275 274 274 274 274 273 273 273 273 273 272 272 272 271 271 270 270 269 269 268 268 268
278 278 278 278 277 277 277 278 278 278 278 279 279 278 278 279 278 278 278 279 279 279 279 279 279 279 279 279 279 279 279 279 279 279 279 278 278 278 278 278 278 277 277 277 277 276 276 276 276 276 276 276 276 276 275 275 275 275 275 274 274 274 274 273 273 273 273 272 272 272 272 271 271 271 270 270 269 269 268 268 268 267 267 267 267
275 275 275 275 275 275 276 276 276 276 276 277 277 277 277 277 277 277 277 277 277 277 277 277 277 277 277 277 276 277 277 277 277 277 276 276 276 276 276 276 276 275 275 275 275 274 274 274 274 274 274 274 274 274 274 274 273 273 273 273 273 272 272 272 272 271 271 271 270 270 270 269 269 269 268 268 268 267 267 267 267 267 267 267 267
Wind_Speed
47 48 50 51 53 54 55 58 59 59 59 57 57 59 60 62 63 62 62 62 61 60 58 54 55 56 55 54 52 50 52 53 50 48 46 42 40 37 35 38 40 37 35 37 38 38 38 37 35 34 33 32 31 30 30 33 35 35 36 36 35 33 33 30 29 31 30 26 24 23 21 20 18 16 14 13 11 10 10 9 8 7 7 6 5
44 47 48 49 51 53 53 54 56 58 57 56 56 58 58 60 62 63 63 62 60 59 56 53 57 59 57 55 56 53 52 53 52 49 47 43 41 39 36 38 42 40 38 39 39 39 38 38 37 35 34 32 32 32 33 36 37 36 37 37 35 34 33 30 27 29 30 28 25 23 21 20 18 16 14 13 12 11 10 9 8 7 6 5 4
41 44 47 49 50 50 51 52 53 55 56 55 56 57 58 59 60 62 64 64 62 60 57 54 56 57 55 55 57 54 51 53 54 52 49 47 44 42 38 39 44 43 41 41 40 39 40 39 38 37 35 34 34 35 36 37 37 37 36 36 34 34 33 30 27 27 28 28 25 23 21 19 18 16 15 13 12 11 9 8 7 6 5 5 4
37 42 44 46 48 49 49 51 51 52 55 56 56 56 56 58 60 60 62 63 63 62 60 59 58 57 58 58 56 54 51 53 55 53 51 48 46 44 39 40 44 44 42 43 41 40 41 40 39 38 37 37 37 38 38 37 37 37 36 35 34 33 33 31 27 25 26 27 26 24 21 20 18 17 15 14 12 10 8 7 6 5 4 4 4
30 37 41 43 46 49 50 50 50 52 54 56 58 58 55 55 58 59 60 60 60 60 60 61 59 58 60 60 58 55 53 54 55 54 52 48 46 45 41 41 46 45 43 44 43 41 41 40 40 40 39 40 40 40 39 38 38 37 36 35 34 33 32 31 29 26 25 26 26 25 23 21 19 18 16 14 12 10 8 7 5 4 3 2 2
28 30 37 41 44 48 50 51 52 52 53 54 56 58 58 56 56 57 59 60 59 59 58 58 58 58 58 57 56 55 54 54 55 53 52 49 48 46 42 42 47 46 43 44 43 43 42 40 41 42 42 43 42 41 40 39 39 38 37 35 34 34 32 31 30 28 26 25 24 24 23 22 20 19 17 15 12 10 9 7 5 4 2 1 2
34 32 34 39 44 48 49 52 53 52 52 52 52 55 57 58 58 58 59 60 61 61 61 59 58 58 58 56 56 56 55 55 54 53 52 50 50 48 43 44 48 47 44 44 44 43 43 42 43 44 45 45 43 42 41 40 39 38 37 35 34 33 32 31 30 29 28 27 25 23 23 22 21 19 17 15 12 11 9 7 5 3 2 1 3
34 38 38 39 44 48 50 51 52 52 51 50 51 51 54 57 59 59 59 60 61 61 62 61 60 59 60 60 59 59 58 56 54 53 53 51 52 50 47 47 50 48 45 45 44 44 44 44 45 46 46 46 44 43 42 41 40 38 36 35 34 33 32 31 31 30 29 28 26 25 24 22 21 19 17 15 13 11 10 7 5 3 3 3 5
35 36 41 41 42 46 49 50 51 51 51 51 52 52 53 55 57 57 58 59 59 59 58 57 57 58 59 59 59 59 59 58 57 55 55 54 54 52 49 50 52 49 47 46 44 44 45 45 46 48 47 46 44 43 41 40 39 37 36 36 34 33 32 32 31 30 29 28 27 26 25 23 22 20 17 15 13 12 10 8 6 5 4 4 6
40 35 39 43 43 43 46 48 48 50 51 52 53 53 53 54 56 57 57 57 57 56 54 54 55 56 57 57 57 57 57 58 58 57 57 57 56 52 50 53 53 50 49 48 46 45 46 46 48 48 47 45 44 42 41 39 38 36 35 35 34 33 33 32 31 29 29 28 27 26 25 23 21 19 17 15 13 11 10 8 8 6 5 5 7
43 38 36 41 43 43 45 46 47 49 50 51 52 53 53 54 55 56 56 56 55 54 53 53 54 54 55 55 56 56 57 57 58 57 58 58 56 53 53 56 54 52 51 50 47 48 48 48 47 47 46 45 43 42 41 40 38 37 35 33 32 32 32 32 32 30 29 28 27 26 24 23 21 19 16 15 13 11 10 10 10 9 8 7 9
46 41 33 37 43 44 45 46 47 49 49 49 51 52 54 55 55 56 56 55 55 54 54 54 53 53 53 54 55 56 56 56 56 57 58 57 55 54 55 56 55 54 52 50 49 49 49 49 47 47 46 45 43 42 41 40 39 38 36 34 32 32 31 30 29 30 29 29 28 27 25 23 21 19 17 15 14 13 13 13 12 11 10 10 9
49 44 33 34 41 43 45 46 46 48 50 50 50 51 53 55 56 57 56 56 55 54 54 53 52 51 52 53 54 55 54 54 54 55 56 55 55 55 55 56 56 54 52 51 51 51 50 49 48 47 46 45 44 43 43 42 41 39 37 35 34 34 32 30 28 27 27 28 27 26 25 24 22 19 18 16 16 16 15 15 14 12 11 12 11
50 46 34 30 39 42 44 46 46 47 49 50 51 51 54 56 56 56 55 55 54 53 52 51 50 50 51 52 52 53 53 53 53 55 55 55 55 55 55 55 54 52 51 52 52 52 50 50 49 48 47 47 46 45 44 43 43 42 40 39 38 37 36 35 33 31 30 29 28 26 26 25 23 20 19 18 17 17 16 15 14 13 11 12 12
50 46 36 28 36 41 44 46 45 45 47 50 51 52 54 56 55 55 54 54 53 52 50 50 51 51 51 51 51 51 52 52 53 55 55 54 54 54 54 53 52 51 52 52 52 51 51 50 50 49 49 49 48 47 46 45 45 44 43 41 40 39 37 36 36 35 33 31 30 29 28 26 24 22 21 20 18 17 16 15 14 13 11 12 14
48 44 37 28 32 40 43 45 45 43 44 48 50 52 54 55 55 56 55 54 53 52 50 50 51 52 52 51 50 51 52 52 54 55 55 54 54 53 53 52 52 53 53 52 52 51 51 51 51 51 51 50 49 48 48 48 47 46 44 41 39 38 37 35 34 34 32 31 30 30 29 27 25 23 22 21 19 18 16 15 14 13 13 14 15
47 43 37 29 28 37 41 44 45 44 44 46 48 50 52 54 55 55 56 56 55 54 53 52 52 52 52 51 51 53 54 53 53 54 54 54 54 54 54 53 53 54 53 52 52 52 52 52 52 52 52 51 50 50 50 50 48 45 42 40 38 38 37 36 36 35 34 32 31 30 28 26 25 24 22 21 19 18 17 16 15 15 16 16 16
46 43 37 31 26 33 40 44 46 46 46 47 47 48 51 53 54 54 56 57 57 56 54 53 53 53 52 53 54 55 55 54 53 54 54 55 56 55 55 55 54 54 53 53 53 53 53 53 53 53 52 51 50 51 51 50 47 44 42 41 40 40 40 40 40 38 37 35 33 31 29 27 24 22 21 19 18 18 18 17 16 17 17 17 16
44 43 37 32 26 28 37 43 46 48 49 49 48 47 49 52 54 54 55 57 58 58 56 54 54 54 54 54 55 55 55 55 55 55 56 56 56 56 56 57 56 55 54 54 54 53 53 53 53 52 51 50 50 51 50 48 46 44 43 43 43 43 44 43 42 41 40 38 36 33 30 27 24 22 20 18 18 18 17 17 17 18 18 17 17
42 41 37 31 27 25 33 41 45 47 49 50 49 48 49 52 53 54 55 58 59 59 57 56 55 55 55 56 55 55 55 55 55 56 56 57 57 57 58 58 58 57 56 56 55 54 54 54 53 51 50 50 51 50 49 48 46 45 45 45 45 45 45 43 42 41 39 37 35 33 29 26 24 22 20 19 18 18 18 18 19 19 18 18 18
40 40 36 31 27 25 28 38 44 46 48 49 49 49 50 52 54 54 56 58 60 60 58 57 56 56 57 57 56 54 55 55 55 56 57 58 58 59 59 59 58 58 57 57 56 56 55 54 53 51 51 51 50 50 49 48 48 46 45 44 43 43 43 42 41 39 37 35 33 30 28 26 24 22 20 19 18 19 19 20 20 20 19 19 19
38 39 35 31 28 25 25 32 40 44 47 48 50 51 51 52 54 55 56 60 62 61 59 58 57 58 58 58 56 55 54 54 56 58 59 59 60 60 59 59 58 57 57 57 56 55 54 53 53 52 52 51 50 50 49 48 47 45 43 42 42 42 41 41 39 37 35 34 32 30 28 27 25 22 20 19 19 20 20 20 20 20 20 20 21
37 38 35 31 29 26 23 27 35 41 45 48 51 52 52 53 55 56 58 60 62 62 60 59 58 60 61 60 58 57 55 55 56 58 60 60 60 59 58 58 57 56 56 56 55 54 54 53 52 51 50 50 49 49 47 46 45 43 43 43 42 41 40 39 37 36 35 34 33 31 29 27 24 22 21 20 20 20 20 20 20 20 21 21 21
35 36 34 32 30 26 23 26 33 39 43 47 50 52 53 54 56 57 59 60 61 62 61 61 61 62 62 62 60 58 57 57 58 59 60 60 59 59 58 58 57 55 54 53 53 53 53 52 51 50 49 49 47 46 45 43 43 42 43 43 42 40 39 38 37 35 35 34 33 31 29 26 24 22 20 20 21 21 21 21 21 21 21 22 22
35 36 34 32 29 25 23 25 32 38 42 46 50 52 54 55 56 58 59 60 61 61 62 62 62 63 63 63 62 60 59 59 59 59 60 60 60 59 59 58 57 55 53 53 52 52 51 50 49 49 49 48 47 46 44 43 42 43 42 42 42 41 40 38 37 36 36 34 33 31 28 26 23 21 20 20 21 21 21 21 21 21 21 22 21
37 36 33 32 28 24 23 26 32 38 42 46 50 52 54 56 57 58 59 60 60 61 62 62 63 63 63 63 62 61 61 61 61 60 60 60 60 59 59 58 56 53 52 52 51 51 49 49 48 48 49 49 48 47 45 44 44 44 43 42 42 42 41 40 38 37 36 34 32 30 27 24 22 22 22 22 22 21 21 21 21 21 21 21 21
38 35 32 29 27 24 23 26 34 39 43 46 49 52 55 57 59 60 61 62 61 60 60 62 63 63 63 62 62 62 62 63 63 62 62 62 61 60 58 57 54 52 52 52 51 50 49 49 48 49 49 49 48 46 45 45 46 46 45 43 43 42 41 40 38 37 35 32 30 28 25 24 24 24 24 23 21 21 21 21 21 21 21 22 21
36 33 29 27 25 24 23 26 35 41 44 47 50 53 56 58 60 62 63 63 63 63 62 63 65 66 65 64 62 62 64 66 66 66 66 64 62 61 59 56 55 54 54 54 52 51 49 49 49 49 48 47 46 46 46 47 47 47 45 43 42 41 40 39 38 37 34 31 28 27 25 26 26 25 24 23 21 21 21 21 21 21 21 22 22
33 30 26 25 25 23 23 28 36 42 45 48 51 53 56 58 60 61 61 60 60 63 65 66 68 69 68 67 67 67 68 69 69 68 66 64 62 61 59 58 57 57 57 56 54 51 49 49 49 49 49 48 47 48 48 47 46 44 43 42 42 43 43 42 41 38 35 31 30 29 28 28 27 26 24 23 22 22 22 22 22 22 22 23 23
28 26 23 23 24 23 25 30 37 43 45 47 50 51 52 55 57 58 60 58 56 59 63 65 68 70 69 68 70 71 71 70 68 65 63 62 61 60 59 59 58 58 58 56 54 51 50 49 49 50 50 50 50 50 49 46 44 42 42 44 45 46 45 43 41 38 35 33 32 31 30 29 28 27 25 24 24 23 23 23 23 23 23 24 24
23 21 20 20 21 23 27 32 38 43 45 46 49 49 50 51 53 55 56 55 54 57 59 59 61 67 69 70 69 67 66 65 64 63 62 61 60 59 59 58 58 59 59 56 53 52 51 50 50 49 48 48 49 48 46 43 42 42 44 46 47 46 44 43 40 37 35 34 33 32 31 30 29 27 26 25 25 24 24 24 25 25 26 26 27
19 19 18 18 20 23 27 31 37 42 44 45 47 49 49 49 50 50 51 51 51 55 56 55 55 59 64 67 67 65 63 61 61 61 61 60 60 59 58 58 59 59 57 56 54 53 52 51 49 48 47 46 46 45 44 44 44 44 45 47 48 46 44 41 39 37 36 36 35 34 33 32 30 29 28 27 27 26 26 27 27 28 29 29 30
14 15 15 17 20 23 28 32 35 39 43 44 45 47 48 49 49 48 48 48 48 49 53 55 55 55 55 58 61 63 63 61 60 60 60 59 59 59 58 58 58 58 56 55 54 54 53 51 49 48 48 48 48 47 47 47 46 45 46 48 47 45 42 41 40 39 38 38 37 35 34 33 32 32 31 30 29 29 30 30 30 31 32 32 33
8 10 12 15 19 23 28 32 35 38 41 43 44 45 46 47 48 47 47 46 45 45 47 50 52 52 51 52 55 58 60 61 59 58 59 58 58 58 58 57 55 54 54 54 54 54 53 52 51 50 50 51 51 51 50 48 47 46 46 47 46 45 44 43 41 40 39 38 38 37 36 35 35 34 33 32 32 33 33 33 33 33 34 34 34
4 6 8 12 16 20 26 30 33 36 39 41 42 43 43 44 44 45 46 45 44 44 45 46 48 49 50 52 53 54 55 58 58 57 58 59 58 58 57 56 54 53 52 52 54 54 53 52 52 53 53 53 52 51 50 48 47 46 46 46 45 44 43 41 39 39 39 40 41 40 38 37 37 36 35 35 35 36 35 35 34 34 34 34 34
4 5 8 10 14 18 24 28 31 34 36 38 39 40 40 40 41 41 41 41 41 40 41 43 45 45 45 48 51 51 50 53 55 55 58 61 61 59 59 59 58 57 55 54 54 54 53 53 53 53 54 53 52 50 47 45 45 44 44 43 42 40 40 40 41 41 41 42 43 42 41 39 39 38 38 38 38 38 37 36 36 35 35 34 34
6 6 8 10 12 16 21 25 28 30 32 34 36 36 37 38 38 38 39 38 37 37 37 40 42 42 42 43 46 47 46 46 47 49 52 58 62 62 61 61 61 60 59 58 56 55 54 53 53 53 53 52 49 47 45 44 43 42 41 41 40 39 40 41 41 41 41 42 43 43 42 40 39 39 39 39 39 39 38 37 37 36 36 36 36
9 8 8 9 11 14 18 21 24 26 27 29 31 33 34 35 36 36 36 36 35 35 35 36 39 41 41 41 41 42 41 40 39 40 46 53 59 60 60 60 60 60 60 60 59 57 55 54 52 52 50 49 47 45 43 42 41 39 38 39 39 38 38 38 39 40 41 41 40 40 40 40 39 39 39 39 39 39 39 38 37 37 37 37 38
14 12 10 9 10 12 15 17 19 21 22 23 25 28 29 31 31 32 32 32 32 32 33 33 34 36 38 39 38 37 37 37 38 40 45 51 56 57 57 58 58 58 58 59 59 57 55 53 52 50 48 46 44 42 40 39 38 37 37 37 37 37 37 38 39 40 40 39 38 37 37 38 38 38 38 39 39 39 38 38 38 38 38 38 39
18 17 14 12 12 12 12 13 14 15 16 17 19 21 23 24 26 26 27 28 28 28 28 29 30 32 35 38 38 38 38 39 40 42 45 50 53 54 53 54 55 55 56 57 57 55 54 53 51 48 45 42 41 40 39 38 38 38 38 38 37 37 37 37 37 38 37 36 35 34 35 35 36 36 37 38 38 38 38 38 38 38 38 38 38
19 19 17 15 14 13 12 11 11 11 11 12 14 15 16 18 19 20 21 22 23 23 23 23 25 27 30 33 35 37 38 38 39 41 43 47 49 49 48 48 50 51 53 53 52 51 51 50 48 45 42 40 40 39 39 38 38 38 38 38 37 37 37 36 36 35 35 34 34 34 34 35 35 36 37 37 37 37 38 38 38 38 37 37 36
22 22 20 18 16 15 14 14 12 10 10 11 12 12 13 14 15 16 17 18 18 19 20 20 21 23 25 27 30 32 33 35 37 39 41 43 44 45 46 46 46 47 48 49 48 47 45 43 41 39 38 39 39 38 38 38 38 37 36 36 36 35 35 34 34 34 34 35 35 35 35 35 35 36 36 36 36 37 37 37 37 36 35 35 35
25 25 24 22 21 20 19 17 15 13 13 13 13 13 13 13 14 15 16 17 18 18 19 20 21 22 23 25 28 30 31 32 34 36 38 40 42 43 44 44 43 43 43 42 41 39 37 35 35 35 36 37 37 36 36 35 34 33 33 32 32 32 32 33 33 34 35 35 35 35 35 35 35 35 35 35 35 35 35 34 34 34 33 34 33
28 28 27 26 25 24 23 21 19 18 17 16 16 16 15 14 15 15 16 17 17 18 19 20 20 21 22 24 26 28 29 30 32 34 36 37 38 39 39 38 38 37 36 35 33 32 32 32 33 34 34 34 33 31 30 29 28 28 28 28 29 30 31 32 34 34 34 34 34 33 33 33 33 34 34 33 33 33 33 33 32 32 32 32 32
31 31 30 29 28 27 25 24 22 21 19 19 19 19 18 17 17 17 17 17 18 18 18 19 19 20 21 22 23 24 26 27 29 30 31 32 32 32 32 32 32 31 31 31 31 31 31 31 31 31 30 29 28 27 26 26 26 26 26 27 27 29 30 31 32 32 32 32 32 32 32 32 32 32 32 32 31 31 31 31 31 31 31 31 32
33 33 33 32 31 30 28 26 24 22 21 21 22 22 21 21 20 19 20 20 20 20 20 20 20 21 22 22 22 23 24 25 26 27 27 27 28 28 28 29 29 29 30 30 30 30 29 28 27 27 27 27 27 27 27 27 27 27 27 27 28 28 29 30 30 30 30 30 30 30 31 31 31 31 31 30 30 30 30 30 30 30 31 31 32
36 36 35 34 32 32 31 29 27 25 25 25 24 24 24 23 22 22 22 22 21 21 21 21 21 21 22 22 23 23 24 24 25 25 25 25 25 25 25 25 25 25 25 25 25 24 24 24 24 24 25 26 26 26 26 26 26 26 27 27 28 29 29 30 30 30 30 29 29 29 30 30 30 30 30 30 29 30 30 31 31 32 32 33 33
38 38 37 35 34 34 33 32 30 29 29 28 28 27 26 25 24 24 23 23 22 22 21 21 21 21 21 21 21 21 21 21 21 21 20 19 19 18 18 18 18 18 18 18 19 19 20 20 21 22 22 23 23 23 23 24 24 25 26 27 27 28 29 29 29 29 28 28 28 28 28 29 30 30 30 30 31 31 32 32 32 32 32 32 32
37 37 37 36 36 35 35 33 32 31 30 29 29 28 27 26 25 24 23 22 21 21 20 19 18 18 18 17 17 16 16 15 15 14 14 13 13 13 12 13 13 13 14 15 16 16 17 18 18 18 19 19 20 20 21 22 23 23 24 25 26 27 27 27 27 27 26 26 27 27 28 29 29 30 31 31 32 32 32 31 31 30 30 30 30
35 36 36 36 35 35 34 32 32 31 29 28 28 27 26 25 25 23 22 21 20 19 18 17 16 15 14 13 12 11 10 9 9 9 9 8 8 9 9 9 10 10 11 12 12 13 14 14 15 15 16 16 17 18 18 19 20 21 22 23 24 24 24 25 25 25 25 25 26 27 27 28 28 28 28 28 28 29 29 30 29 29 29 29 29
32 32 33 32 32 31 31 30 30 30 29 27 27 26 25 24 23 22 20 19 19 18 17 15 14 13 12 11 10 8 7 6 6 5 4 4 4 4 4 5 6 7 8 8 9 10 11 12 12 13 14 14 15 16 16 17 18 20 21 21 21 21 22 22 23 23 23 24 25 26 25 25 25 25 25 25 25 25 26 26 27 28 29 29 28
Wind_Direction
238 234 230 227 226 224 222 219 215 214 212 211 213 214 215 215 214 213 213 212 214 215 212 212 217 218 215 214 215 220 222 218 214 213 210 208 210 212 214 218 221 223 219 215 214 213 213 212 210 208 205 205 209 209 202 195 190 187 185 182 184 183 179 176 171 164 163 166 165 164 164 165 169 173 175 175 172 173 173 166 162 159 152 146 139
242 237 232 228 227 226 224 222 218 215 214 212 213 214 215 215 214 215 216 217 216 216 214 216 218 216 216 218 218 220 222 219 215 213 211 212 213 213 216 217 218 221 218 212 211 211 212 211 208 205 204 208 211 208 200 195 190 187 185 182 181 181 177 175 176 170 166 166 167 167 168 169 173 176 177 176 171 170 169 162 157 151 141 132 115
248 239 234 230 228 227 226 225 221 217 215 213 213 214 216 216 215 215 217 219 219 219 219 220 219 217 219 223 221 219 221 220 217 213 212 216 216 213 217 216 215 218 216 210 210 210 210 208 206 204 205 207 207 203 198 195 191 186 183 179 177 177 175 175 179 175 169 167 168 170 171 173 176 177 176 174 169 170 170 161 154 142 128 111 81
252 241 235 231 229 227 227 227 224 220 217 214 213 213 215 216 216 215 216 218 219 220 221 220 219 221 223 222 219 218 222 222 218 215 213 216 216 215 218 218 216 217 214 210 211 210 209 208 204 204 206 205 202 200 198 195 191 185 180 176 173 173 174 175 178 178 173 169 169 171 174 177 178 176 174 172 171 174 173 162 151 139 118 92 64
258 246 238 233 229 227 226 226 226 224 221 218 214 212 213 214 215 216 216 217 217 217 217 216 216 221 222 219 216 218 222 222 220 216 214 217 217 217 222 220 216 217 214 211 212 211 210 210 207 205 206 204 201 199 197 194 188 183 178 174 172 172 173 174 175 177 176 173 172 174 177 178 178 177 176 176 178 180 176 168 159 146 122 81 44
271 256 243 236 231 228 226 225 226 226 224 222 218 214 212 213 214 215 216 217 217 215 215 214 214 218 220 219 217 218 221 222 221 217 215 218 217 218 224 222 217 217 214 211 213 214 214 213 210 206 204 202 201 198 195 191 187 182 177 174 173 172 173 174 173 173 174 175 176 179 179 178 179 180 181 181 183 186 183 176 170 160 139 41 352
278 268 255 244 235 231 228 226 226 226 225 223 221 217 214 215 216 217 217 218 218 217 217 217 217 217 218 219 219 221 223 222 220 218 216 218 218 218 224 221 216 216 214 212 214 216 216 215 210 206 202 200 199 197 193 190 186 182 178 175 175 175 175 175 174 173 175 176 179 182 182 181 181 182 183 183 184 188 189 185 182 173 165 249 302
291 274 264 253 241 235 231 228 227 226 224 223 223 221 216 216 218 218 218 219 219 220 220 220 220 219 219 221 222 223 224 223 221 219 218 219 218 221 224 218 213 214 213 212 214 216 217 215 208 202 199 198 197 195 193 189 185 182 179 178 178 179 178 178 176 176 178 179 180 182 183 183 184 184 184 185 187 191 194 194 195 197 205 247 279
315 285 266 257 249 240 234 231 228 226 224 223 224 224 220 217 218 218 219 219 220 222 222 221 220 219 219 220 222 223 223 223 223 221 220 219 218 222 223 215 210 211 211 211 214 216 215 211 203 199 198 197 195 194 192 189 186 184 182 181 182 182 181 181 179 179 180 180 181 183 184 185 186 185 183 187 192 196 200 205 212 219 226 252 274
325 302 271 259 254 245 237 231 228 225 224 223 224 225 222 220 219 219 219 220 221 222 222 221 220 219 218 220 221 223 223 224 224 223 221 218 219 221 217 210 209 211 211 212 213 214 212 207 202 200 198 196 194 193 191 189 188 187 187 186 186 185 184 183 182 183 183 182 183 185 186 186 186 185 185 190 196 201 209 221 229 237 246 259 271
325 312 281 262 256 248 238 232 228 226 225 224 224 225 224 222 221 221 220 220 221 222 221 220 220 220 221 223 223 223 223 223 222 221 219 218 220 218 210 206 208 211 211 213 212 210 208 205 203 200 197 195 193 191 191 189 187 186 187 189 190 190 189 187 185 184 184 184 186 187 187 187 187 186 189 195 201 209 220 230 237 244 252 253 260
324 319 292 263 254 246 239 233 229 227 226 224 224 225 225 223 222 222 221 220 220 220 221 222 222 223 224 225 224 222 221 220 219 217 217 218 216 212 206 206 209 209 210 211 210 208 206 204 202 199 196 194 192 191 190 189 187 186 187 189 190 190 192 192 191 188 187 187 189 190 189 189 189 189 193 199 206 215 225 233 239 244 251 255 258
323 323 303 264 250 245 239 234 231 229 227 226 225 224 224 224 223 223 222 221 220 221 222 224 225 225 224 222 221 219 219 218 216 214 214 213 208 205 206 208 208 208 208 208 207 207 205 202 198 196 194 193 191 191 190 188 187 187 186 187 189 189 189 190 192 192 192 192 194 195 193 192 192 192 198 206 213 221 230 236 241 245 251 260 264
322 324 312 270 248 243 238 234 232 230 228 226 226 225 224 224 224 223 222 221 221 221 222 223 223 222 221 219 218 219 218 216 213 211 210 207 204 204 206 207 207 207 207 206 206 205 202 199 196 195 193 192 191 191 190 189 188 187 187 187 188 189 190 190 190 191 193 196 198 197 196 195 195 197 204 212 218 226 235 239 244 249 254 265 272
320 326 322 284 252 242 238 234 231 230 228 227 226 227 226 224 222 222 222 221 221 220 220 221 221 220 220 219 219 219 217 214 209 207 206 205 204 204 204 205 206 207 207 206 205 202 199 198 197 195 193 192 191 191 191 191 191 189 190 191 191 193 194 195 194 193 195 198 198 197 198 197 198 201 207 215 222 230 238 243 248 254 259 266 274
319 325 328 303 261 245 240 235 232 230 229 227 226 227 227 224 222 221 220 219 220 220 220 220 219 219 218 219 219 218 215 211 207 205 204 203 202 202 203 205 206 206 206 205 203 200 198 198 198 196 194 193 192 193 193 194 194 193 195 196 196 197 198 197 197 198 200 201 199 199 200 200 202 207 212 218 226 231 237 242 246 253 258 263 271
316 321 329 317 274 250 243 238 235 232 229 228 228 228 228 226 223 221 219 218 218 219 219 218 218 219 219 219 217 215 211 208 205 204 202 201 201 203 205 206 206 205 204 203 201 199 199 200 199 197 196 195 195 195 196 196 197 198 199 200 200 200 199 198 199 201 203 204 204 204 205 206 209 214 218 223 229 232 237 242 246 252 259 265 272
312 316 324 325 293 258 245 240 236 232 230 231 231 231 229 227 225 223 221 220 219 218 218 217 218 219 219 217 214 211 208 205 203 203 203 203 205 205 205 204 204 204 203 201 200 200 200 200 201 200 199 198 198 198 198 198 199 201 203 204 203 202 201 201 202 203 205 207 208 208 210 211 213 217 221 225 231 237 242 247 252 256 262 269 275
308 311 318 325 311 273 250 241 237 234 232 231 232 232 230 227 224 224 223 221 219 218 217 217 218 219 218 215 212 209 207 205 204 204 205 206 206 205 203 202 202 201 201 200 200 202 202 202 202 203 202 201 202 201 200 200 203 206 208 208 207 206 205 204 204 205 206 208 209 210 211 213 214 217 222 227 234 242 248 252 256 261 267 272 276
305 308 311 318 317 288 258 245 240 236 233 231 231 231 229 225 222 222 221 219 218 217 217 217 218 218 215 212 210 209 207 206 204 204 205 205 205 204 203 202 201 200 199 200 201 202 203 203 204 205 204 205 205 204 203 203 207 210 211 212 212 210 208 206 207 208 209 210 212 214 214 216 218 220 224 229 236 244 250 253 259 265 269 272 275
302 305 305 309 314 300 269 250 243 239 235 232 230 228 226 223 220 219 218 216 216 216 216 216 217 217 214 211 209 209 208 206 204 203 203 203 203 204 204 203 201 199 199 200 202 203 203 203 204 205 206 207 208 207 206 206 209 212 213 215 217 214 210 209 209 210 211 213 215 216 217 219 221 223 227 232 237 243 249 254 261 266 269 272 274
299 301 299 302 307 303 281 257 245 240 236 232 228 224 222 220 217 217 216 215 215 215 215 215 216 215 213 211 209 209 208 207 204 203 202 202 203 204 205 204 202 201 201 201 203 203 203 204 205 206 207 208 208 209 209 210 210 212 214 216 217 214 212 213 213 212 213 214 215 216 218 221 223 225 228 232 237 242 249 255 260 264 267 270 272
295 296 294 297 300 299 287 262 246 238 234 230 225 222 219 216 213 214 214 213 213 213 213 213 214 213 212 210 209 209 208 207 205 203 203 203 203 204 205 205 204 204 204 204 203 203 204 205 206 207 208 209 209 210 212 213 213 213 215 216 216 215 215 215 215 214 215 216 216 217 220 222 225 227 230 234 238 244 249 254 258 261 264 267 269
293 292 291 294 295 294 286 263 244 236 232 227 222 219 217 214 212 212 212 211 210 210 211 211 211 211 211 210 209 209 208 207 205 204 204 204 203 204 205 205 206 207 207 207 206 205 205 206 207 208 208 210 211 212 213 214 215 216 217 218 217 216 217 217 216 216 217 217 218 220 222 224 226 228 232 236 240 245 250 253 257 261 263 265 268
290 290 290 291 290 288 282 261 241 232 228 224 219 216 214 211 210 210 210 209 209 208 208 209 209 209 210 210 209 208 207 206 205 205 205 206 205 204 204 206 207 209 209 210 209 208 207 207 207 208 209 210 211 211 212 214 217 219 220 220 219 218 219 219 218 218 219 220 221 222 225 227 228 229 232 236 240 245 250 253 256 259 260 263 265
288 288 289 288 285 281 276 257 238 229 226 222 219 216 214 211 209 209 209 208 208 208 207 207 207 208 210 211 209 207 206 205 205 205 205 206 206 205 205 206 208 210 212 212 211 210 209 209 208 209 210 211 211 211 212 214 216 218 219 220 220 221 221 221 221 222 223 223 224 227 228 227 226 227 231 236 241 245 249 252 254 256 258 261 263
288 288 286 285 280 274 266 250 233 224 222 220 217 215 214 212 210 209 209 208 207 207 207 207 206 207 208 210 209 208 206 205 205 205 205 206 206 206 206 207 209 211 213 213 213 211 210 209 209 210 211 212 212 213 215 215 216 217 217 219 221 223 224 225 226 227 227 227 227 228 225 223 224 228 233 237 241 244 248 250 252 254 256 260 262
287 286 283 280 272 263 255 243 229 220 217 216 214 211 211 210 210 210 211 210 208 207 206 207 208 208 208 209 208 207 206 206 206 205 204 204 205 205 205 208 210 211 211 212 212 212 212 211 210 210 211 211 211 212 214 216 216 216 217 218 221 225 227 228 227 227 226 226 226 225 222 223 227 230 233 236 238 242 246 249 251 252 254 257 262
285 282 277 271 262 251 241 233 224 217 215 214 213 212 212 211 211 211 213 216 217 214 211 210 211 210 209 209 208 207 206 206 206 205 204 204 205 205 205 207 210 210 211 211 211 211 212 211 211 210 210 210 210 212 214 215 215 216 217 220 224 226 228 227 226 225 225 224 224 224 223 226 229 231 232 234 237 241 245 247 249 251 253 257 262
278 274 267 260 253 239 227 221 218 214 213 212 211 210 212 214 214 214 215 218 221 221 218 215 214 213 212 211 211 210 209 208 206 205 205 206 207 207 207 208 209 210 210 211 212 213 213 212 211 211 211 210 211 212 214 214 215 218 222 225 226 226 226 227 227 227 226 226 226 226 227 228 230 231 232 235 238 241 244 246 247 250 253 258 263
268 262 254 247 238 227 218 214 211 210 211 211 210 208 208 210 213 215 216 218 218 218 217 216 215 215 215 215 214 213 213 212 210 207 206 206 208 210 210 209 210 210 210 211 212 213 214 213 212 212 212 212 213 214 215 217 220 225 228 228 226 226 227 228 229 229 230 230 230 229 229 230 231 232 234 236 238 240 242 244 247 250 253 258 262
255 250 243 232 221 216 213 211 208 207 207 208 209 207 206 207 209 210 213 216 216 215 214 214 215 216 217 218 218 216 215 214 212 210 209 208 209 210 211 211 211 211 211 212 213 214 214 214 213 212 212 213 214 216 218 222 224 227 230 231 229 228 229 230 231 232 233 233 232 231 231 231 231 232 234 236 237 239 241 244 247 251 255 258 262
244 244 238 224 214 211 209 207 206 206 206 206 206 205 205 206 207 206 209 213 216 216 214 215 217 217 216 217 220 220 219 217 214 212 211 211 211 210 211 212 212 212 212 213 214 215 214 213 213 213 213 214 216 218 222 225 226 227 231 234 234 232 231 231 232 233 233 233 233 234 233 232 232 233 235 236 237 239 242 245 249 252 256 259 262
230 233 230 219 213 209 206 204 203 204 205 206 206 205 205 206 207 205 205 208 212 214 213 214 216 216 216 216 217 220 222 221 217 214 213 212 212 211 211 211 212 214 215 216 216 216 214 213 214 215 216 217 218 221 225 228 227 227 231 235 235 233 233 233 234 235 235 235 235 235 234 233 233 234 236 238 239 241 244 247 250 253 257 261 264
192 207 213 211 209 207 205 204 203 203 203 204 204 204 204 205 206 206 206 206 208 209 210 211 212 213 214 215 215 217 218 218 218 217 215 213 211 210 208 208 209 211 214 216 217 217 216 216 217 218 218 219 221 224 227 228 227 227 231 233 234 234 236 238 239 239 238 237 237 237 236 235 235 236 238 240 241 244 247 249 252 256 259 262 265
123 170 187 196 201 203 203 203 202 202 203 203 203 203 203 204 205 207 207 207 208 208 208 208 209 210 211 213 214 216 216 215 215 214 213 213 212 210 208 207 209 210 212 214 215 217 219 220 220 220 220 221 224 227 229 228 227 229 231 233 234 236 238 241 241 240 239 239 239 239 239 238 238 239 240 241 243 246 249 253 255 258 261 264 266
95 137 161 178 189 196 200 200 199 200 201 202 201 201 202 203 205 206 206 207 208 208 207 207 207 207 208 211 214 216 217 216 214 211 210 212 213 212 210 209 210 211 212 212 214 216 218 220 221 222 223 225 227 229 229 227 227 229 231 233 234 236 240 244 243 241 242 242 242 241 241 241 241 242 243 244 247 249 252 255 257 260 262 264 264
96 116 138 160 175 186 191 193 194 196 197 198 200 200 202 203 205 207 207 207 207 207 207 206 206 205 206 209 212 214 215 213 209 205 206 209 209 208 208 209 210 210 211 213 214 215 218 220 222 223 225 227 229 229 227 226 226 228 230 232 234 238 243 245 243 242 243 243 243 243 243 243 244 245 246 248 250 252 255 257 259 261 262 262 263
95 102 116 134 151 168 178 184 188 191 193 196 198 201 203 205 207 208 210 210 210 210 210 209 208 207 207 207 208 208 207 204 200 198 200 204 206 205 205 207 208 208 210 213 215 217 219 222 223 225 226 227 228 227 225 225 225 226 228 230 233 238 241 242 241 241 243 244 244 244 244 245 247 248 249 251 252 254 256 258 259 260 261 262 262
91 95 101 111 122 136 152 163 171 179 186 192 197 201 205 208 210 212 212 212 212 213 213 212 210 209 210 211 210 208 206 204 202 200 200 202 204 204 205 206 207 207 210 213 216 219 222 224 225 225 225 224 224 224 224 225 225 226 228 230 233 237 241 242 242 242 244 246 247 247 247 248 248 249 250 252 254 255 257 258 259 260 261 261 262
83 87 88 93 100 109 119 128 138 152 164 174 182 189 195 200 204 206 207 207 208 207 207 207 208 209 212 214 214 213 212 208 205 203 202 202 203 203 205 206 207 208 211 215 218 220 222 224 225 224 222 222 224 226 227 227 227 228 230 232 235 239 242 242 243 244 245 247 248 248 249 250 250 251 253 254 254 256 257 258 260 261 261 262 262
80 82 82 83 86 90 95 100 107 121 137 149 159 166 173 178 182 185 187 188 190 191 190 190 193 196 200 204 206 207 207 206 204 203 202 203 204 205 206 208 209 211 214 217 221 223 224 224 224 224 224 226 228 229 229 229 230 232 234 236 239 241 242 243 245 246 247 248 249 250 252 253 253 254 254 254 255 256 258 259 261 262 262 263 264
78 82 83 85 86 88 91 94 98 105 114 124 133 141 150 156 158 163 167 167 168 172 174 174 176 180 183 187 192 194 195 196 197 197 197 199 201 203 204 206 209 211 214 217 220 222 223 223 224 226 227 230 231 231 232 233 234 235 237 239 240 242 243 244 246 246 248 250 252 254 255 255 255 255 255 256 257 258 260 261 262 262 263 264 265
75 79 81 83 86 89 92 95 98 101 106 113 118 123 130 137 140 145 152 154 156 161 164 165 169 173 174 178 184 188 188 188 189 190 192 194 196 198 200 203 206 208 210 212 214 217 219 222 224 226 226 227 228 229 230 232 234 236 238 240 241 243 244 245 246 248 251 253 255 256 257 257 257 257 257 258 259 260 260 261 261 262 263 264 265
74 77 80 81 82 85 87 90 94 99 103 107 111 114 118 123 128 133 139 142 146 152 155 157 161 167 168 170 175 179 180 181 182 183 185 188 190 193 196 199 201 203 205 207 209 212 215 217 219 220 220 221 222 224 226 228 230 233 234 236 237 239 241 244 247 250 253 255 255 256 257 256 257 258 258 258 259 259 258 259 260 261 262 264 264
67 72 75 78 79 82 84 87 90 94 97 102 106 109 113 117 121 126 130 133 136 140 143 145 150 156 158 159 162 165 168 170 173 174 177 180 183 185 188 192 195 197 200 203 205 208 209 210 212 214 216 218 220 222 224 225 226 227 228 230 233 237 242 246 250 252 254 255 255 255 256 256 257 257 257 256 256 256 257 258 259 260 261 262 263
61 65 68 71 75 78 81 84 87 89 92 96 101 105 108 112 116 120 123 126 129 131 133 135 138 142 145 148 151 154 157 161 164 165 167 170 173 176 180 185 188 191 195 197 199 202 204 208 211 215 217 220 221 222 224 226 228 231 234 237 240 244 247 250 252 254 255 256 256 256 256 256 255 255 254 254 254 255 256 258 259 259 260 260 261
61 64 67 69 71 73 76 79 82 85 89 93 96 100 103 107 110 112 114 116 119 122 125 128 130 133 135 138 141 145 149 153 157 159 161 165 169 173 178 183 188 192 196 200 203 207 211 214 217 219 220 222 224 227 230 233 235 238 241 244 246 249 251 253 255 256 257 258 258 257 256 256 256 256 256 256 256 257 258 258 259 259 260 261 262
62 64 67 68 69 71 73 76 78 80 84 88 91 94 97 99 102 104 106 108 110 112 115 118 121 124 127 129 131 136 143 148 153 158 162 167 174 180 187 194 199 205 210 214 217 220 222 223 226 228 229 232 235 237 239 241 243 245 247 249 250 251 252 254 256 257 258 258 258 258 257 257 258 258 258 258 258 258 258 258 259 260 260 261 263
60 62 63 65 67 69 71 73 75 76 79 81 83 85 88 89 91 92 95 98 100 101 103 106 109 112 117 120 123 128 135 141 148 155 162 170 179 187 197 206 211 217 223 226 229 232 234 236 239 242 243 246 249 249 250 252 253 252 253 253 254 255 257 258 259 260 259 259 260 260 259 258 257 257 258 259 259 259 258 257 258 258 259 260 263
58 60 62 63 65 66 67 68 69 70 71 73 74 76 77 79 80 81 82 84 85 85 86 88 91 94 97 101 104 108 114 119 126 136 148 164 183 201 217 230 238 244 248 249 251 253 254 255 258 259 261 262 263 263 263 263 261 261 261 263 264 265 266 265 264 262 260 258 257 257 256 255 255 256 256 257 257 258 259 259 258 258 259 260 260